Retour au catalogue

STARLINK-35816

ActifCommunicationsVLEO
NORAD 66499·PAYLOAD·🇺🇸 United States

Lancé Nov 15, 2025 depuis Cape Canaveral Space Force Station

Loading…

Prochains Passages (prochaines 24 heures)

TLE

FraisSource: CelesTrak SupGP

Époque: Sep 14, 2026, 21:25 UTC

1 66499C 25263Q   26257.89284722  .00004539  00000+0  16445-3 0  2576
2 66499  43.0014   2.5097 0001571 281.1861 353.2943 15.27563979    16

Suivez STARLINK-35816 en temps réel avec AllMySat

Download on the App Store